Regional Weather Roundup
Issued by NWS

Home | Current Version | Previous Version | Text Only | Print | Product List | Glossary Off
Versions: 1 2 3 4 5 6 7 8 9 10 11 12 13 14 15 16 17 18 19 20 21 22 23 24 25 26 27 28 29 30 31 32 33 34 35 36 37 38 39 40 41 42 43 44 45 46 47 48 49 50

000
ASUS43 KDTX 251101
RWRMI
MICHIGAN HOURLY REGIONAL WEATHER ROUNDUP
NATIONAL WEATHER SERVICE DETROIT/PONTIAC MI
700 AM EDT TUE APR 25 2017

NOTE: "FAIR" INDICATES FEW OR NO CLOUDS BELOW 12,000 FEET WITH NO
SIGNIFICANT WEATHER AND/OR OBSTRUCTION TO VISIBILITY.

MIZ047>049-052>055-059>063-066>070-074>076-081>083-251200-
SOUTHEAST LOWER MICHIGAN

CITY           SKY/WX    TMP DP  RH WIND       PRES   REMARKS
ADRIAN         CLOUDY    50  47  89 SE7       29.85F
ALMA           PTCLDY    47  42  84 E7        29.85F
ANN ARBOR      CLOUDY    51  45  79 E6        29.85F
BAD AXE        CLOUDY    46  37  70 SE5       29.90S
CARO           CLOUDY    48  39  71 E6        29.87S
DETROIT CITY   CLOUDY    51  46  83 E7        29.88F
DETROIT        CLOUDY    51  44  77 E6        29.87F
FLINT          CLOUDY    51  42  71 E3        29.87R
GROSSE ILE     CLOUDY    50  44  81 E6        29.87S
HILLSDALE      CLOUDY    50  45  81 SE7       29.83S
HOWELL         CLOUDY    51  42  70 SE10      29.85S

CITY           SKY/WX    TMP DP  RH WIND       PRES   REMARKS
JACKSON        CLOUDY    52  46  80 SE8       29.84R
LAMBERTVILLE   CLOUDY    52  48  89 E3        29.86S
LANSING        CLOUDY    53  44  71 SE10      29.84S
LAPEER         DRIZZLE   48  40  72 SE5       29.87S
MASON          CLOUDY    52  46  80 SE6       29.84S
MONROE         CLOUDY    51  46  83 E6        29.86S
MT. CLEMENS    CLOUDY    50  45  84 E7        29.87F
PONTIAC        CLOUDY    50  41  71 E9        29.86S
PORT HOPE        N/A     47  38  71 SE17G23   29.89S
PORT HURON     CLOUDY    50  39  66 E5        29.90S
TRI CITIES     CLOUDY    50  41  71 E7        29.88R
MIDLAND        CLOUDY    49  38  65 E5        29.87S
TROY           CLOUDY    51  41  68 E5        29.89S
SAGINAW HB     CLOUDY    50  37  62 E7        29.86S
$$
MIZ043>046-050>051-056>058-064>065-071>073-077>080-251200-
SOUTHWEST LOWER MICHIGAN

CITY           SKY/WX    TMP DP  RH WIND       PRES   REMARKS
BATTLE CREEK   CLOUDY    54  47  77 SE7       29.82F
BENTON HARBOR  CLEAR     53  46  77 SE9       29.76F
BIG RAPIDS     CLEAR     43  40  86 SE3       29.82S
COLDWATER      MOCLDY    51  47  85 SE6       29.82F
FREMONT        FAIR      49  40  71 E6        29.80R
HOLLAND        CLEAR     52  45  77 SE9       29.79S
GRAND RAPIDS   PTCLDY    49  45  86 E7        29.81S
IONIA          FAIR      48  43  81 E6        29.82S
KALAMAZOO      PTCLDY    53  45  74 SE9       29.81F
LUDINGTON      CLEAR     50  43  76 E7        29.77S
MARSHALL       CLOUDY    53  48  82 SE7       29.82S
MOUNT PLEASANT CLOUDY    45  40  85 E3        29.84F
MUSKEGON       PTCLDY    51  44  77 SE9       29.78S
SOUTH HAVEN    CLEAR     51  46  80 SE6       29.77S
$$
MIZ016>042-251200-
NORTHERN LOWER MICHIGAN

CITY           SKY/WX    TMP DP  RH WIND       PRES   REMARKS
ALPENA         PTCLDY    39  37  92 E5        29.93S
BEAVER ISLAND  CLOUDY    42  37  80 E13       29.80F
BELLAIRE       CLOUDY    52  39  61 CALM      29.82S
CADILLAC       CLEAR     41  37  87 E6        29.82S
CHARLEVOIX     CLOUDY    50  39  66 E10       29.84F
FRANKFORT      CLOUDY    56  42  60 SE13G21   29.77S
GAYLORD        PTCLDY    43  34  70 SE8       29.85F
GRAYLING       CLOUDY    38  35  87 E8        29.86F WCI  32
HARBOR SPRINGS CLOUDY    44  36  72 E12       29.84F
HOUGHTON LAKE  PTCLDY    42  37  82 E7        29.86F
MANISTEE       PTCLDY    52  42  69 E8        29.78R
OSCODA         CLOUDY    44  38  79 CALM      29.91R
PELLSTON       CLOUDY    42  35  76 SE6       29.86F
ROGERS CITY    PTCLDY    39  36  90 SE6       29.93S WCI  35
TRAVERSE CITY  MOCLDY    52  40  63 VRB6      29.80S
$$
MIZ007>008-015-251200-
EASTERN UPPER MICHIGAN

CITY           SKY/WX    TMP DP  RH WIND       PRES   REMARKS
KINROSS        CLOUDY    40  32  73 SE16      29.88F WCI  31
MACKINAC ISLAN CLOUDY    38  38 100 E21G28    29.86F WCI  28
NEWBERRY       CLOUDY    42  37  82 SE14      29.82F
S. S. MARIE    CLOUDY    44  32  62 E8        29.89F
MUNISING         N/A     46  36  68 S7        29.75S
$$
MIZ004>006-011>014-085-251200-
CENTRAL UPPER MICHIGAN

CITY           SKY/WX    TMP DP  RH WIND       PRES   REMARKS
MANISTIQUE     CLOUDY    44  38  80 E10       29.79R
ESCANABA       CLOUDY    45  38  76 E9        29.76F
MENOMINEE      MOCLDY    48  38  68 S6        29.73F
SAWYER-GWINN   CLEAR     45  36  70 SE10      29.74F
$$
MIZ001>003-009>011-084-251200-
WESTERN UPPER MICHIGAN

CITY           SKY/WX    TMP DP  RH WIND       PRES   REMARKS
IRON MOUNTAIN  CLOUDY    44  35  70 SE5       29.70F
HOUGHTON       CLOUDY    41  34  76 E13       29.67F
COPPER HARBOR    N/A     46  37  71 S13G23    29.69S
IRONWOOD       CLOUDY    53  34  48 SE12      29.60F
$$

ABBREVIATIONS USED IN REMARKS
   TC - TEMPERATURE IN CELSIUS
  WCI - WIND CHILL INDEX
   HX - HEAT INDEX
  VSB - VISIBILITY





USA.gov is the U.S. government's official web portal to all federal, state and local government web resources and services.